TIANMU-1 04

Last updated on Tue Oct 14 2025 00:02:22 GMT+0000 (Coordinated Universal Time)

1 55974U 23039B 25286.63247345 .00018380 00000+0 48089-3 0 9995 2 55974 97.5044 86.9406 0003491 261.6687 98.4162 15.38785770142814
UTC large
Height (km)
Speed (km/s)
/
Latitude / Longitude
Inclination (degrees)
Orbital Period (minutes)
Azimuth
Elevation
Range (km)
Doppler Factor

Next 0 passes for location: London (51.5072 / 0.1276)

Sorry there are no passes over London.